Location: Pulvis Stellarum Observatory
(41.6962°N, 71.4263°W)
Time: 21:27:26
(UTC-04:00)

Cosmos 1758 - Visible Passes

Search period start: 28 March 2017 00:00
Search period end: 07 April 2017 00:00
Orbit: 542 x 565 km, 82.5° (Epoch: 27 March)

Date Brightness Start Highest point End Pass type
(mag) Time Alt. Az. Time Alt. Az. Time Alt. Az.
28 Mar 7.3 05:52:15 10° ENE 05:52:44 10° ENE 05:53:13 10° ENE visible
28 Mar 3.4 19:46:24 10° S 19:50:17 55° E 19:54:13 10° NNE visible
28 Mar 6.8 21:26:02 10° W 21:27:11 11° WNW 21:28:19 10° NW visible
29 Mar 7.1 05:48:09 10° NE 05:49:35 12° ENE 05:51:00 10° E visible
29 Mar 3.3 19:43:07 10° S 19:47:03 63° E 19:51:01 10° NNE visible
30 Mar 6.9 05:44:28 10° NE 05:46:24 13° ENE 05:48:20 10° E visible
30 Mar 3.2 19:39:51 10° S 19:43:49 73° E 19:47:49 10° NNE visible
31 Mar 6.8 05:40:56 10° NE 05:43:14 15° ENE 05:45:32 10° ESE visible
31 Mar 3.3 19:36:37 10° S 19:40:35 83° E 19:44:36 10° N visible
01 Apr 6.8 05:37:27 10° NNE 05:40:03 16° ENE 05:42:39 10° ESE visible
01 Apr 3.4 19:33:22 10° S 19:37:21 86° WNW 19:41:23 10° N visible
02 Apr 6.7 05:34:01 10° NNE 05:36:52 18° ENE 05:39:44 10° ESE visible
03 Apr 6.5 05:30:36 10° NNE 05:33:41 20° ENE 05:36:46 10° ESE visible
04 Apr 6.3 05:27:14 10° NNE 05:30:30 22° ENE 05:33:46 10° SE visible
05 Apr 6.0 05:23:53 10° NNE 05:27:18 25° ENE 05:30:43 10° SE visible
06 Apr 5.8 05:20:32 10° NNE 05:24:07 28° ENE 05:27:41 10° SE visible
